Location: Unspecified
(0.0000°N, 0.0000°E)
Time: 16:30:23
(UTC+00:00)

Tiros 1 despin weight - All Passes

Search period start: 20 December 2014 00:00
Search period end: 30 December 2014 00:00
Orbit: 600 x 649 km, 48.2° (Epoch: 19 December)

Date Brightness Start Highest point End Pass type
(mag) Time Alt. Az. Time Alt. Az. Time Alt. Az.
20 Dec - 06:35:29 10° SSW 06:39:58 63° SE 06:44:23 10° NE daylight
20 Dec - 18:44:28 10° NW 18:49:04 76° SW 18:53:45 10° SE visible
21 Dec - 05:14:42 10° SSE 05:17:04 14° SE 05:19:25 10° E visible
21 Dec - 06:54:22 10° WSW 06:58:39 42° NW 07:02:52 10° NNE daylight
21 Dec - 17:22:35 10° N 17:26:14 23° NE 17:29:56 10° ESE daylight
21 Dec - 19:03:55 10° WNW 19:07:47 26° SW 19:11:42 10° S visible
22 Dec - 05:31:35 10° SSW 05:35:50 38° SE 05:40:00 10° ENE visible
22 Dec - 07:14:45 10° W 07:17:21 15° NW 07:19:56 10° NNW daylight
22 Dec - 17:40:22 10° NNW 17:44:55 67° NE 17:49:33 10° SE daylight
23 Dec - 05:49:58 10° SW 05:54:30 70° NW 05:58:57 10° NNE daylight
23 Dec - 16:19:28 10° NNE 16:22:03 15° NE 16:24:39 10° E daylight
23 Dec - 17:59:16 10° WNW 18:03:35 41° SW 18:07:59 10° SSE daylight
24 Dec - 04:27:55 10° S 04:31:39 24° SE 04:35:18 10° ENE visible
24 Dec - 06:09:31 10° WSW 06:13:10 24° NW 06:16:47 10° N daylight
24 Dec - 16:36:28 10° NNW 16:40:44 40° NE 16:45:06 10° ESE daylight
24 Dec - 18:19:38 10° W 18:22:20 15° SW 18:25:03 10° SSW visible
25 Dec - 04:45:46 10° SSW 04:50:20 71° SE 04:54:49 10° NE visible
25 Dec - 16:54:52 10° NW 16:59:23 68° SW 17:04:00 10° SSE daylight
26 Dec - 03:24:38 10° SSE 03:27:25 16° SE 03:30:09 10° E visible
26 Dec - 05:04:44 10° WSW 05:08:59 38° NW 05:13:10 10° NNE visible
26 Dec - 15:32:48 10° N 15:36:32 25° NE 15:40:20 10° ESE daylight
26 Dec - 17:14:25 10° WNW 17:18:05 24° SW 17:21:48 10° S daylight
27 Dec - 03:41:45 10° SSW 03:46:08 43° SE 03:50:26 10° ENE visible
27 Dec - 05:25:19 10° W 05:27:40 14° NW 05:30:00 10° NNW visible
27 Dec - 15:50:40 10° NW 15:55:11 74° NE 15:59:48 10° SE daylight
28 Dec - 04:00:13 10° SW 04:04:47 63° NW 04:09:15 10° NNE visible
28 Dec - 14:29:31 10° NNE 14:32:19 16° NE 14:35:08 10° E daylight
28 Dec - 16:09:39 10° WNW 16:13:50 37° SW 16:18:06 10° SSE daylight
29 Dec - 02:37:58 10° S 02:41:53 27° SE 02:45:45 10° ENE night (unlit)
29 Dec - 04:19:52 10° WSW 04:23:25 22° NW 04:26:55 10° N visible
29 Dec - 14:46:40 10° NNW 14:50:58 44° NE 14:55:20 10° ESE daylight
29 Dec - 16:30:16 10° W 16:32:34 14° SW 16:34:52 10° SSW daylight
